Dean International
Flight School

Career Spotlight

Mika

Mika

Congratulations to Mika from Khazakstan. She recently sent us this photo of her flying an Airbus airliner.

More...
Mika's Success Story
close

Congratulations to Mika from Khazakstan. She recently sent us this photo of her flying an Airbus airliner.

Mario

Mario

My dreams could not have been realized if I wouldn't have been part of the Dean International family.

More...
Mario's Success Story
close

"My dreams could not have been realized if I wouldn't have been part of the Dean International family. Thank you Robert, thanks to all my co-workers, and thanks to all of my students!"

Fernando

Fernando

I am now working as a First Officer at TACA and am enjoying every moment of it.

More...
Fernando's Success Story
close

"Will never forget my time of flight training at Dean International. I am now working as a First Officer at TACA and am enjoying every moment of it."

Alvaro

Alvaro

Because of the flight time I was able to built while instructing, I got the experience needed to apply to an airline in Colombia.

More...
Alvaro's Success Story
close

Dean alumnus Alvaro Londoño currently flies with Tampa Cargo. He says of his experience at Dean: "I want to take this opportunity to thank you for giving me the chance to build my experience and expand my knowledge in Dean International. Because of the flight time I was able to built flight instructing, I got the experience needed to apply to an airline in Colombia."

Ralph

Ralph

Every Aruban student of Dean International has made it into Tiara Air Aruba, that is very nice.

More...
Ralph's Success Story
close

"Next to me is my Co-Pilot, Elison. This picture was taken on our first flight together, which was almost exactly 5 years after I finished at Dean International. [...] Every Aruban student of Dean International has made it into Tiara Air Aruba. [...] The future looks bright here in Aruba."

Rohaan

Rohaan

The [..] staff will all work diligently to help you finish your certificates as safely and efficiently as possible.

More...
Rohaan's Success Story
close

After receiving very hard times from other flight schools [...], I came to Dean International where Robert Dean personally sat down with me and gave me a financial and chronological look into how much remained to finish my private pilot certificate. Through his hard efforts as an instructor and mentor, I was able to finish my private pilot certificate within one week.

Welcome to Dean International

In over two decades, Dean International has educated over 7,000 pilots from all over the world, including over 1,000 students from India alone. By offering a great training experience, a friendly service staff, an ample variety of aircraft, and by improving constantly, we have become one of the largest, most prestigious FAA 141-approved flight schools in North America. Located in Miami, Florida, USA, our flight school offers an ideal location for year-round, "learn to fly" weather, flight training. Dean International is not only well-equipped to provide services to professional trainees but also caters to General Aviation renters. Visit or contact our headquarters at Kendall-Tamiami Executive Airport located in Miami, FL today to learn more about us, or simply read more about our programs if you are an international student interested in joining our school.

Local Airport Information
TAF FOR KTMB (Issued: Tue, July 29th 2014 6:30 PM UTC)
TAF KTMB 291728Z 2918/3018 28008KT P6SM VCTS SCT030CB BKN250
      FM300000 22004KT P6SM SCT250
     
METAR FOR KTMB (Issued: Tue, July 29th 2014 5:53 PM UTC):
KTMB 291753Z 23007KT 10SM CLR 34/23 A3001 RMK AO2 LTG DSNT NW SLP162 60000 T03390233 10344 20278 58006

This weather information is provided by the National Weather Service.
It is automatically refreshed every three minutes.
TAF FOR KHST (Issued: Tue, July 29th 2014 4:07 PM UTC)
TAF KHST 2916/3022 28009KT 9999 FEW040 QNH2998INS
      TEMPO 2917/2922 29012G18KT -TSRA BKN035CB
      BECMG 3000/3001 27005KT 9999 SCT020 QNH2996INS
      BECMG 3015/3016 26009KT 9999 SCT035 QNH2994INS TX33/2919Z TN25/3008Z
     
METAR FOR KHST (Issued: Tue, July 29th 2014 5:58 PM UTC):
KHST 291758Z AUTO 30006KT 10SM FEW100 SCT180 SCT210 33/23 A3001 RMK AO2 SLP165 T03290233 10337 20266 58007

This weather information is provided by the National Weather Service.
It is automatically refreshed every three minutes.
TAF FOR KOPF (Issued: Tue, July 29th 2014 6:30 PM UTC)
TAF KOPF 291728Z 2918/3018 25007KT P6SM VCTS SCT030CB BKN250
      FM300000 25004KT P6SM SCT250
     
METAR FOR KOPF (Issued: Tue, July 29th 2014 5:53 PM UTC):
KOPF 291753Z 20008KT 10SM FEW044 33/22 A3001 RMK AO2 LTG DSNT W SLP163 60025 T03330222 10339 20261 58008 $

This weather information is provided by the National Weather Service.
It is automatically refreshed every three minutes.
TAF FOR KMIA (Issued: Tue, July 29th 2014 6:33 PM UTC)
TAF KMIA 291728Z 2918/3018 25006KT P6SM VCTS SCT030CB BKN250
      FM300000 23004KT P6SM SCT250
     
METAR FOR KMIA (Issued: Tue, July 29th 2014 5:53 PM UTC):
KMIA 291753Z 24007KT 10SM SCT038 SCT250 33/23 A3002 RMK AO2 SLP165 CB DSNT SE AND NW TCU DSNT SE 60000 T03280228 10328 20278 58005

This weather information is provided by the National Weather Service.
It is automatically refreshed every three minutes.
Design by Ariel Llizo
© Dean International Inc. 2012